Regional Weather Roundup
Issued by NWS

Home | Current Version | Previous Version | Graphics & Text | Print | Product List | Glossary On
Versions: 1 2 3 4 5 6 7 8 9 10 11 12 13 14 15 16 17 18 19 20 21 22 23 24 25 26 27 28 29 30 31 32 33 34 35 36 37 38 39 40 41 42 43 44 45 46 47 48 49 50
000
ASUS45 KBOU 272307
RWRCO

WEATHER ROUNDUP FOR COLORADO
NATIONAL WEATHER SERVICE DENVER/BOULDER CO
500 PM MDT WED AUG 27 2014

NOTE: "FAIR" INDICATES FEW OR NO CLOUDS BELOW 12000 FEET WITH NO
SIGNIFICANT WEATHER AND/OR OBSTRUCTIONS TO VISIBILITY.

COZ001>005-013-030-031-280000-
...NORTHWEST COLORADO...

CITY           SKY/WX    TMP DP  RH WIND       PRES   REMARKS
CRAIG          CLOUDY    60  50  69 E5        30.27F
HAYDEN         CLOUDY    55  45  67 N6        30.28S
MEEKER         TSTM      55  49  80 S3        30.28R
MOUNT WERNER   NOT AVBL
STEAMBOAT SPGS CLOUDY    50  48  92 E7        30.31S
WALDEN         PTSUNNY   59  37  44 SW9G17    30.30S
$$

COZ006>008-011-280000-
...WEST CENTRAL VALLEYS...

CITY           SKY/WX    TMP DP  RH WIND       PRES   REMARKS
GRAND JUNCTION PTSUNNY   69  50  50 NW9       30.19F THUNDER
MONTROSE       CLOUDY    65  45  48 S6        30.28R
EAGLE          LGT RAIN  57  46  67 W8        30.30F
RIFLE          PTSUNNY   64  49  57 CALM      30.23F
DELTA          RAIN      67  57  70 SW10      30.23R
NUCLA          CLOUDY    59  46  63 SE9G17    30.32R THUNDER
$$

COZ017>023-064>068-280000-
...SOUTHWEST COLORADO...

CITY           SKY/WX    TMP DP  RH WIND       PRES   REMARKS
DURANGO        PTSUNNY   70  39  32 W16G22    30.28F
CORTEZ         PTSUNNY   71  49  45 S17       30.25F
PAGOSA SPRINGS PTSUNNY   65  36  34 SW9       30.34S
TELLURIDE      NOT AVBL
WOLF CREEK PAS CLOUDY    41  37  87 SW22G31   30.55S
$$

COZ009-010-012-014-032>034-037-058>063-280000-
...CENTRAL COLORADO...

CITY           SKY/WX    TMP DP  RH WIND       PRES   REMARKS
ASPEN          PTSUNNY   55  42  61 N8        30.36R THUNDER
BUENA VISTA    MOSUNNY   66  33  29 W21       30.26S
COPPER MTN     CLOUDY    41  36  81 W10       30.55R THUNDER
BERTHOUD PASS  CLOUDY    36  36 100 N10       30.56F
COTTONWOOD PAS PTSUNNY   59  32  36 NW7G17    30.40R
GUNNISON       MOSUNNY   63  37  39 W26G36    30.35R
KREMMLING      MOSUNNY   68  36  30 SW15G23   30.28F
LEADVILLE      LGT RAIN  50  40  68 W13       30.40F
MONARCH PASS   CLOUDY    41  32  70 SW22G40   30.64S
SALIDA         CLOUDY    61  43  50 SW20G38   30.37R
SUNLIGHT       CLOUDY    46  45  93 CALM      30.50R
WILKERSON PASS NOT AVBL
$$

COZ069>075-280000-
...SAN LUIS VALLEY/SANGRE DE CRISTO MOUNTAINS...

CITY           SKY/WX    TMP DP  RH WIND       PRES   REMARKS
ALAMOSA        MOSUNNY   70  31  23 SW16      30.25F
LA VETA PASS   NOT AVBL
SAGUACHE       LGT RAIN  57  43  58 N16G24    30.31R
$$

COZ035-036-038>040-280000-
...NORTHERN COLORADO FRONT RANGE...

CITY           SKY/WX    TMP DP  RH WIND       PRES   REMARKS
DENVER INTL AP PTSUNNY   68  54  60 NW21G28   30.09S THUNDER
DMNS CITY PARK   N/A     72  53  49 N12       30.08F
AURORA         PTSUNNY   72  56  56 N15G24    30.11F
FRONT RANGE AP NOT AVBL
ERIE MUNI ARPT PTSUNNY   70  56  62 N12       30.08F
BOULDER MUN AP PTSUNNY   70  52  52 NE6       30.10F
CENTENNIAL     PTSUNNY   75  51  43 NE8       30.11F
BROOMFIELD     NOT AVBL
FORT COLLINS   PTSUNNY   66  55  68 N5        30.10F
LONGMONT       PTSUNNY   72  55  53 CALM      30.09F
$$

COZ041-046-047-076>085-087-088-280000-
...PIKES PEAK/PALMER DIVIDE AND SOUTHERN FOOTHILLS...

CITY           SKY/WX    TMP DP  RH WIND       PRES   REMARKS
COLO. SPRINGS  PTSUNNY   79  40  24 S12       30.11F
A. F. ACADEMY  PTSUNNY   75  46  36 W8        30.14F
ELLICOTT       MOSUNNY   80  43  26 S12G17    30.10F
FALCON         MOSUNNY   76  44  32 S7        30.17F
FORT CARSON    MOSUNNY   81  39  22 SW14      30.08F
LIMON          MOSUNNY   79  53  40 E6        30.07F
MONUMENT HILL  PTSUNNY   68  52  56 NE7       30.19S
TRINIDAD       PTSUNNY   82  48  30 SE13      30.08F
$$

COZ042>045-048>051-090-091-280000-
...NORTHEAST COLORADO...

CITY           SKY/WX    TMP DP  RH WIND       PRES   REMARKS
GREELEY ARPT   PTSUNNY   72  54  53 N8        30.08R
AKRON          PTSUNNY   78  60  53 VRB7      30.03F
BURLINGTON     MOSUNNY   80  61  52 S9        30.02F
WRAY             N/A     82  63  51 SE9G17    30.00F
STERLING       SUNNY     81  63  54 N16       30.01F
HOLYOKE        MOSUNNY   73  63  68 S7        30.01F
FORT MORGAN    SUNNY     79  57  46 NE12G17   30.04F
$$

COZ086-089-092>099-280000-
...SOUTHEAST COLORADO...

CITY           SKY/WX    TMP DP  RH WIND       PRES   REMARKS
PUEBLO         MOSUNNY   87  50  27 SE15      29.99F
LA JUNTA       MOSUNNY   83  53  35 SE6       29.99F
LAMAR          SUNNY     88  58  36 VRB6      29.95F
SPRINGFIELD      N/A     84  57  39 S16G24    30.03F
$$


USA.gov is the U.S. government's official web portal to all federal, state and local government web resources and services.